Regional Weather Roundup
Issued by NWS Mobile, AL

Home | Current Version | Previous Version | Text Only | Print | Product List | Glossary On
Versions: 1 2 3 4 5 6 7 8 9 10 11 12 13 14 15 16 17 18 19 20 21 22 23 24 25 26 27
000
ASUS44 KMOB 200310
RWRMOB
REGIONAL WEATHER ROUNDUP
NATIONAL WEATHER SERVICE MOBILE AL
1000 PM CDT SAT APR 19 2014

NOTE: "FAIR" INDICATES FEW OR NO CLOUDS BELOW 12,000 FEET WITH NO
      SIGNIFICANT WEATHER AND/OR OBSTRUCTIONS TO VISIBILITY.

  * THESE STATIONS ARE PART OF THE UNIVERSITY OF SOUTH ALABAMA
    MESONET AND ARE NOT UNDER NWS OR FAA QUALITY CONTROL.

ALZ061>064-200400-
COASTAL ALABAMA

CITY           SKY/WX    TMP DP  RH WIND       PRES   REMARKS
MOBILE REG APT CLEAR     58  54  86 CALM      30.11S
BROOKLEY FIELD CLEAR     60  53  77 NE3       30.11S
USA CAMPUS*      N/A     59  52  77 CALM      30.11S
DOG RIVER*     NOT AVBL


CITY           SKY/WX    TMP DP  RH WIND       PRES   REMARKS
MOUNT VERNON*    N/A     54  52  94 CALM      30.13R
SARALAND*      NOT AVBL
BAY MINETTE*   NOT AVBL
LOXLEY*        NOT AVBL
ROBERTSDALE*   NOT AVBL
FAIRHOPE*      NOT AVBL
ELBERTA*       NOT AVBL
FOLEY*         NOT AVBL
GRAND BAY*       N/A     59  57  94 CALM      30.09R
DAUPHIN ISLND* NOT AVBL
BON SCOUR NWR* NOT AVBL
GULF SHORES    MOCLDY    67  54  62 CALM      30.10R

$$

ALZ051>060-200400-
INTERIOR SOUTHWEST AND SOUTH CENTRAL ALABAMA

CITY           SKY/WX    TMP DP  RH WIND       PRES   REMARKS
GREENVILLE     MOCLDY    64  53  67 E12       30.14R
EVERGREEN      PTCLDY    66  55  67 NE9       30.14R
CASTLEBERRY*   NOT AVBL
ATMORE*          N/A     61  57  88 NE3       30.14R
DIXIE*         NOT AVBL
ANDALUSIA/OPP  CLOUDY    66  55  67 E9        30.13R
ANDALUSIA*     NOT AVBL
FLORALA APT    MOCLDY    62  56  80 N7        30.14R
FLORALA*         N/A     63  55  77 N5        30.09R

$$

FLZ001>006-200400-
WESTERN FLORIDA PANHANDLE

CITY           SKY/WX    TMP DP  RH WIND       PRES   REMARKS
PENSACOLA      CLOUDY    68  56  65 E5        30.11R
NAS PENSACOLA  CLOUDY    67  59  75 E7        30.11R
MILTON         CLOUDY    66  55  67 E7        30.12R
WHTNG S FIELD  CLOUDY    68  55  63 NE8       30.12R


CITY           SKY/WX    TMP DP  RH WIND       PRES   REMARKS
WALNUT HILL*   NOT AVBL
JAY*           NOT AVBL
DUKE FIELD     CLOUDY    64  56  74 N6        30.12R
CRESTVIEW      CLOUDY    65  56  72 NE6       30.13R
VALPARAISO     CLOUDY    66  57  73 NE9       30.12R
DESTIN         CLOUDY    67  56  67 NE7       30.11R

$$

MSZ076-079-200400-
INTERIOR SOUTHEAST MISSISSIPPI

CITY           SKY/WX    TMP DP  RH WIND       PRES   REMARKS
LEAKESVILLE*     N/A     61  50  67 CALM      30.12R
AGRICOLA*      NOT AVBL

$$

MARINE OBSERVATIONS

STATION/POSITION TIME  TEMP    WIND        PRES    WAVE
                       AIR SEA DIR/SP/G            HT/PER
                 (UTC) (F)     (DEG/KT/KT) (MB)    (FT/S)
PASCAGOULA       0300   66      40/  3/  4 1018.9S
PETIT BOIS ISLND 0300   70     100/  2/  3 1019.4S
GRAND BAY        0200   69     350/  3     1020.0S
KATRINA CUT      0200   70      10/  5     1020.0R
CEDAR POINT      0200   69      20/  6     1019.0S
E DAUPHIN ISLAND 0300   67      40/  5/  6 1019.0R
MIDDLE BAY LIGHT 0200   67      40/  6     1018.6R
USCG MOBILE BAY  0300   68 63   40/  3/  4 1018.2F
STATE DOCKS      0300   68 64              1019.2F
MEAHER PARK      0200   68      20/  1     1020.0R
WEEKS BAY        0200   62                   N/A
FORT MORGAN      0300   67      70/  9/ 10 1018.8S
12 S ORANGE BCH  0300   67 67  110/  8/ 10 1019.6R   1/ 3
PENSACOLA BAY    0300   69 66  120/  1/  4 1020.0R
64 S DAUPHIN ISL 0240   70 71  310/ 12/ 14 1019.3S
67 S FORT MORGAN 0200   68                 1018.0S

$$

SELECTED LOCATIONS ACROSS THE REGION

CITY           SKY/WX    TMP DP  RH WIND       PRES   REMARKS
NEW ORLEANS    PTCLDY    68  58  70 NE6       30.11S
GULFPORT       CLEAR     64  55  72 CALM      30.10S
PASCAGOULA AP  CLEAR     59  57  93 CALM      30.10S
PASCAGOULA*      N/A     63  55  77 CALM      30.10S
HATTIESBURG    CLEAR     59  55  87 CALM      30.13R
LAUREL         CLEAR     57  52  82 CALM      30.13S
MERIDIAN       CLEAR     57  52  83 CALM      30.13R
JACKSON        PTCLDY    60  54  80 CALM      30.15R
MONTGOMERY     PTCLDY    64  54  69 E8        30.15R
TROY           CLOUDY    61  53  75 NE13      30.14R
KINSTON*       NOT AVBL
GENEVA*          N/A     61  54  77 NE8       30.14R
ASHFORD*       NOT AVBL
DOTHAN         LGT RAIN  58  54  86 NE13G21   30.15R FOG
PANAMA CITY    CLOUDY    63  56  78 N5        30.09S

$$




USA.gov is the U.S. government's official web portal to all federal, state and local government web resources and services.